Location: Slemon Park
(46.4340°N, 63.8219°W)
Time: 12:52:10
(UTC-04:00)

Daily predictions for brighter satellites

Satellite Brightness Start Highest point End
(mag) Time Altitude Azimuth Time Altitude Azimuth Time Altitude Azimuth
Meteor 1-20 Rocket 4.3 18:16:25 10° S 18:22:14 81° E 18:28:06 10° NNE
Cosmos 1818 3.6 18:18:23 10° SSW 18:23:49 80° SE 18:29:19 10° NE
Cosmos 2322 3.7 18:20:37 10° NNW 18:26:21 70° ENE 18:32:03 10° SE
Cosmos 1140 Rocket 3.9 18:22:40 10° S 18:27:28 42° ESE 18:32:19 10° NE
METEOR-M 4.2 18:22:21 10° SSE 18:27:35 60° ENE 18:32:51 10° N
Cosmos 1570 Rocket 4.4 18:23:02 10° N 18:28:02 43° ENE 18:33:00 10° SE
Meteor 1-19 Rocket 4.4 18:24:48 10° N 18:30:23 54° ENE 18:36:01 10° SSE
Cosmos 1633 3.0 18:27:45 10° SSE 18:31:14 41° E 18:34:44 10° NNE
USA 229 DEB 4.1 18:26:30 10° NW 18:33:25 51° NE 18:40:26 10° ESE
USA 229 4.1 18:26:36 10° NW 18:33:30 51° NE 18:40:31 10° ESE
TSX-5 3.2 18:34:50 10° SSW 18:37:57 77° ESE 18:41:20 10° NNE
SJ-6B 2.9 18:36:12 10° SSE 18:40:03 52° ENE 18:43:51 10° N
Cosmos 2237 Rocket 3.5 18:37:47 10° N 18:42:14 23° NE 18:46:22 11° E
Gbstr 26 Del rocket 3.2 18:40:06 10° SSW 18:43:43 40° SE 18:46:53 12° ENE
COSMOS 2428 2.9 18:38:18 10° NNW 18:43:53 54° ENE 18:49:26 10° SE
Cosmos 2237 4.2 18:38:12 10° NNW 18:43:56 66° ENE 18:49:37 10° SE
Cosmos 405 Rocket 4.3 18:42:53 10° NNE 18:45:45 18° ENE 18:48:15 11° ESE
Cosmos 1300 Rocket 3.6 18:42:22 10° S 18:46:42 58° E 18:51:05 10° NNE
Meteor 2-4 Rocket 3.8 18:43:18 10° N 18:48:46 54° ENE 18:54:02 10° SSE
Spot 2 Rocket 3.9 18:44:29 10° SE 18:49:10 40° ENE 18:53:54 10° N
ATLAS 2AS CENTAUR R/B 4.5 18:43:26 10° NW 18:49:45 24° N 18:55:59 10° ENE
Meteor 1-13 Rocket 4.2 18:44:20 10° N 18:49:55 86° E 18:55:35 10° S
Helios 1A 4.3 18:47:15 10° ESE 18:50:23 21° ENE 18:53:32 10° NNE
USA 215 4.0 18:44:41 10° NE 18:50:55 49° NNW 18:57:09 10° W
Helios 1B rocket 4.1 18:49:43 10° ENE 18:52:02 14° E 18:54:19 10° SE
Cosmos 1238 Rocket 2.0 18:49:10 10° N 18:52:10 87° E 18:55:09 10° S
CZ-2D R/B 4.3 18:49:23 10° ESE 18:52:30 24° ENE 18:55:39 10° NNE
COSMO-SKYMED 1 3.3 18:49:14 10° N 18:53:30 57° WNW 18:57:45 10° SSW
H-2A R/B 3.4 18:50:32 10° SE 18:53:51 31° ENE 18:57:13 10° N
Cosmos 2360 Rocket 2.7 18:50:31 10° NNW 18:56:08 64° WSW 19:01:42 10° SSE
Cosmos 2219 Rocket 2.7 18:51:18 10° NNW 18:56:34 40° NE 19:01:49 10° SE
Cosmos 2208 Rocket 4.1 18:52:16 10° NNW 18:57:43 69° ENE 19:03:06 10° SSE
Resurs 01 Rocket 1.8 18:56:12 10° SE 19:00:25 47° ENE 19:04:40 10° N
Cosmos 1850 Rocket 4.1 18:57:44 10° S 19:02:54 55° ESE 19:08:07 10° NNE
NOSS 3-1 (C) 4.4 18:57:29 10° NNW 19:04:23 43° NE 19:10:26 16° ESE
Cosmos 2219 3.5 18:59:05 10° S 19:04:33 47° ESE 19:10:02 10° NE
Envisat 4.3 19:03:55 17° E 19:05:52 21° ENE 19:09:35 10° NNE
Cosmos 2181 Rocket 4.2 19:01:05 10° N 19:07:21 79° W 19:13:41 10° S
BREEZE-M DEB (TANK) 3.1 19:04:41 10° WNW 19:07:33 86° SSW 19:13:23 15° ESE
BREEZE-M DEB (TANK) 3.7 19:04:46 10° SSW 19:07:39 21° SSE 19:08:20 19° SE
Cosmos 2227 Rocket 3.7 19:05:07 10° SE 19:07:24 16° ESE 19:07:24 16° ESE
Cosmos 1954 Rocket 4.3 19:03:28 10° SSW 19:08:39 69° WNW 19:13:54 10° NNE
Cosmos 1536 2.8 19:05:02 10° S 19:08:57 61° E 19:12:55 10° NNE
Resurs 1-3 3.7 19:09:12 10° SSE 19:13:28 54° ENE 19:17:46 10° N
HJ-1C 3.3 19:12:14 10° SSE 19:15:36 89° E 19:18:59 10° NNW
SL-16 R/B 3.6 19:13:00 10° N 19:17:07 20° NE 19:18:44 18° ENE
Cosmos 2074 Rocket 4.0 19:15:08 10° S 19:21:17 63° E 19:27:30 10° NNE
Okean 1 Rocket 3.3 19:20:56 10° SSW 19:25:25 75° W 19:29:56 10° N
Cosmos 2184 Rocket 3.9 19:20:16 10° S 19:26:30 66° E 19:32:41 10° NNE
Cosmos 1892 Rocket 3.8 19:22:45 10° N 19:26:56 45° ENE 19:29:32 21° SE
Spot 1 4.1 19:25:31 19° SE 19:28:14 51° ENE 19:32:19 10° N
Meteor 1-11 Rocket 4.2 19:24:29 10° SSW 19:30:18 69° WNW 19:36:15 10° N
Cosmos 1025 Rocket 3.1 19:29:25 10° N 19:33:49 82° W 19:38:13 10° S
ALOS 2.8 19:31:17 10° S 19:35:54 60° W 19:40:33 10° NNW
USA 186 3.0 19:38:04 25° NNE 19:38:04 25° NNE 19:39:31 10° N
SAR-Lupe-1 4.0 19:35:46 38° SE 19:36:54 60° ENE 19:40:27 10° N
SAR-Lupe-4 3.4 19:35:40 26° SSE 19:37:34 73° ENE 19:41:09 10° N
Cosmos 2333 Rocket 2.2 19:32:36 10° NNW 19:38:20 65° ENE 19:41:50 24° SE
SL-08 ROCKET BODY 4.5 19:33:18 10° S 19:39:30 88° W 19:45:45 10° N
Cosmos 1980 3.8 19:36:10 10° NNW 19:41:45 56° ENE 19:44:14 32° ESE
Meteor 2-13 Rocket 4.4 19:35:53 10° S 19:41:49 58° E 19:47:47 10° NNE
Nadezhda 3 Rocket 4.0 19:36:00 10° N 19:42:02 53° ENE 19:46:44 17° SSE
Cosmos 841 Rocket 4.1 19:39:17 10° N 19:43:59 34° ENE 19:44:24 33° ENE
Cosmos 2341 Rocket 4.3 19:47:04 10° SSE 19:53:00 43° E 19:59:00 10° NNE
Abrixas rocket 2.9 19:50:20 10° SW 19:52:57 44° SSW 19:52:57 44° SSW
Cosmos 1544 Rocket 3.5 19:49:31 10° S 19:53:46 58° E 19:58:02 10° NNE
Cosmos 2285 Rocket 4.2 19:47:49 10° NNW 19:54:15 72° WSW 20:00:36 10° S
NOSS 0 Rocket 3.8 19:48:10 10° NNW 19:54:22 85° ENE 19:58:02 26° SSE
GEOS 3 Rocket 3.5 19:51:19 25° NE 19:54:27 68° SE 19:59:43 10° SSW
Cosmos 1763 Rocket 3.6 19:50:44 10° NNW 19:55:43 49° ENE 19:56:19 47° E
Cosmos 2154 Rocket 4.0 19:49:35 10° S 19:55:48 60° E 20:02:01 10° NNE
Cosmos 1437 4.2 20:02:35 10° NNW 20:04:26 31° NNW 20:04:26 31° NNW
Cosmos 1515 4.3 20:09:05 10° N 20:12:02 51° NNW 20:12:02 51° NNW
ATLAS CENTAUR R/B 4.2 20:14:25 10° SSW 20:14:33 11° SSW 20:14:33 11° SSW
Meteor 1-12 Rocket 4.2 20:15:22 10° S 20:21:19 75° E 20:27:14 10° NNE
Cosmos 405 Rocket 4.0 20:18:10 10° NNW 20:22:02 42° W 20:23:33 29° SW
Helios 1A 4.2 20:23:44 24° SSW 20:25:43 40° W 20:29:40 10° NNW
Cosmos 2237 Rocket 2.3 20:21:13 10° NNW 20:26:56 75° WSW 20:28:14 54° S
Helios 1B rocket 3.0 20:23:37 10° N 20:27:42 57° WNW 20:31:46 10° SSW
Cosmos 962 Rocket 4.3 20:21:43 10° S 20:27:53 77° E 20:34:02 10° N
Cosmos 1066 Rocket 4.0 20:24:10 10° N 20:29:52 88° E 20:30:18 77° SSE
Gbstr 26 Del rocket 4.0 20:26:50 10° W 20:29:29 38° WNW 20:29:29 38° WNW
Cosmos 2297 Rocket 4.4 20:26:02 10° S 20:26:20 11° S 20:26:20 11° S
USA 215 4.3 20:30:31 26° NE 20:33:09 35° N 20:38:56 10° WNW
Meteor 2-8 Rocket 4.3 20:30:06 10° N 20:36:13 89° E 20:36:57 71° SSE
Resurs 01 Rocket 4.2 20:34:01 10° SW 20:37:09 19° W 20:40:18 10° NW
NOSS 3-1 (A) 3.9 20:29:49 10° NW 20:37:22 88° NE 20:39:19 57° SE
Cosmos 2219 Rocket 3.5 20:35:24 10° NW 20:40:28 36° WSW 20:43:37 20° SSW
ATLAS 2AS CENTAUR R/B 3.5 20:35:25 10° NW 20:43:06 42° NE 20:43:50 41° NE
ERS-1 Rocket 3.6 20:45:15 49° NNW 20:45:15 49° NNW 20:48:55 10° NNW
Envisat 3.4 20:44:07 58° WSW 20:44:27 60° W 20:49:30 10° NNW
USA 32 4.2 20:40:07 10° N 20:45:18 67° W 20:45:18 67° W
Cosmos 2227 Rocket 3.2 20:46:08 10° SSW 20:49:27 37° SW 20:49:27 37° SW
NOSS 3-1 (C) 4.3 20:48:18 10° NW 20:55:45 64° WSW 20:57:53 48° S
SL-16 R/B 2.7 20:56:18 10° NNW 21:00:38 54° NNW 21:00:38 54° NNW
H-2A R/B 4.2 21:21:53 19° N 21:21:53 19° N 21:23:28 10° N
Cosmos 2333 Rocket 4.3 21:17:50 10° NW 21:22:05 22° W 21:23:54 19° SW
ATLAS 2AS CENTAUR R/B 4.2 22:26:39 10° NW 22:31:17 37° NW 22:31:17 37° NW
